.
WxDataArchive / Data Records for 2016-02-15
2016-02-14 February 2016 2016-02-16

Data Records for Monday, 15 February 2016

Time	Temp	Chill	HIndex	Humid	Dewpt	 Wind 	HiWind	WindDir	Rain 	Barom
-----	----	-----	------	-----	-----	------	------	-------	-----	-----
00:00	16.5	16.5	16.5	84	12.5	3	6	90	0.00	30.116 
00:05	16.5	16.5	16.5	85	12.8	2	5	90	0.00	30.116 
00:10	16.7	16.7	16.7	85	13.0	1	5	90	0.00	30.116 
00:15	16.7	16.7	16.7	85	13.0	2	4	112	0.00	30.117 
00:20	16.7	16.7	16.7	85	13.0	2	5	112	0.00	30.117 
00:25	16.7	16.7	16.7	85	13.0	1	3	112	0.00	30.117 
00:30	16.9	16.9	16.9	85	13.2	1	4	112	0.00	30.113 
00:35	16.9	16.9	16.9	84	12.9	1	3	112	0.00	30.113 
00:40	16.9	16.9	16.9	85	13.2	1	3	112	0.00	30.113 
00:45	16.9	16.9	16.9	84	12.9	2	5	90	0.00	30.105 
00:50	16.9	16.9	16.9	84	12.9	1	4	90	0.00	30.105 
00:55	17.0	17.0	17.0	84	13.0	1	3	90	0.00	30.105 
01:00	17.0	17.0	17.0	84	13.0	1	3	90	0.00	30.101 
01:05	17.0	17.0	17.0	84	13.0	1	2	90	0.00	30.101 
01:10	17.2	17.2	17.2	84	13.2	1	4	90	0.00	30.101 
01:15	17.2	17.2	17.2	84	13.2	0	2	90	0.00	30.099 
01:20	17.2	17.2	17.2	84	13.2	1	4	90	0.00	30.099 
01:25	17.2	17.2	17.2	84	13.2	1	3	90	0.00	30.099 
01:30	17.3	17.3	17.3	84	13.3	1	3	90	0.00	30.084 
01:35	17.3	17.3	17.3	84	13.3	2	4	90	0.00	30.084 
01:40	17.3	17.3	17.3	84	13.3	1	3	90	0.00	30.084 
01:45	17.3	17.3	17.3	84	13.3	1	4	112	0.00	30.081 
01:50	17.3	17.3	17.3	84	13.3	2	3	90	0.00	30.081 
01:55	17.3	17.3	17.3	84	13.3	2	5	90	0.00	30.081 
02:00	17.5	17.5	17.5	84	13.5	1	3	90	0.00	30.071 
02:05	17.5	17.5	17.5	84	13.5	1	4	90	0.00	30.071 
02:10	17.5	17.5	17.5	84	13.5	1	3	90	0.00	30.071 
02:15	17.5	17.5	17.5	84	13.5	1	4	90	0.00	30.076 
02:20	17.5	17.5	17.5	84	13.5	1	4	90	0.00	30.076 
02:25	17.5	17.5	17.5	85	13.8	0	3	90	0.00	30.076 
02:30	17.5	17.5	17.5	85	13.8	2	4	90	0.00	30.065 
02:35	17.5	17.5	17.5	85	13.8	2	6	112	0.00	30.065 
02:40	17.5	17.5	17.5	85	13.8	1	4	90	0.00	30.065 
02:45	17.7	17.7	17.7	85	14.0	2	5	112	0.00	30.050 
02:50	17.7	17.7	17.7	85	14.0	2	5	112	0.00	30.050 
02:55	17.7	17.7	17.7	85	14.0	2	5	90	0.00	30.050 
03:00	17.7	17.7	17.7	85	14.0	1	4	90	0.00	30.048 
03:05	17.7	17.7	17.7	85	14.0	1	3	90	0.00	30.048 
03:10	17.8	17.8	17.8	85	14.1	1	3	90	0.00	30.048 
03:15	17.8	17.8	17.8	85	14.1	1	2	90	0.00	30.043 
03:20	17.8	17.8	17.8	86	14.3	1	4	90	0.00	30.043 
03:25	17.8	17.8	17.8	86	14.3	1	3	90	0.00	30.043 
03:30	17.8	17.8	17.8	86	14.3	1	4	90	0.00	30.032 
03:35	17.8	17.8	17.8	86	14.3	1	6	90	0.00	30.032 
03:40	17.8	17.8	17.8	86	14.3	1	2	90	0.00	30.032 
03:45	17.8	17.8	17.8	86	14.3	1	5	112	0.00	30.025 
03:50	17.8	17.8	17.8	87	14.6	1	4	112	0.00	30.025 
03:55	18.0	18.0	18.0	87	14.8	1	3	158	0.00	30.025 
04:00	18.0	18.0	18.0	87	14.8	2	4	90	0.00	30.019 
04:05	18.0	18.0	18.0	87	14.8	1	3	112	0.00	30.019 
04:10	18.0	18.0	18.0	87	14.8	1	3	112	0.00	30.019 
04:15	18.0	18.0	18.0	88	15.1	1	2	112	0.00	30.019 
04:20	18.0	18.0	18.0	88	15.1	1	2	112	0.00	30.019 
04:25	18.1	18.1	18.1	88	15.2	1	3	112	0.00	30.019 
04:30	18.1	18.1	18.1	88	15.2	0	2	112	0.00	30.009 
04:35	18.1	18.1	18.1	88	15.2	1	2	112	0.00	30.009 
04:40	18.1	18.1	18.1	88	15.2	1	3	112	0.00	30.009 
04:45	18.1	18.1	18.1	88	15.2	1	3	112	0.00	30.006 
04:50	18.3	18.3	18.3	88	15.4	1	3	112	0.00	30.006 
04:55	18.3	18.3	18.3	88	15.4	0	2	112	0.00	30.006 
05:00	18.3	18.3	18.3	88	15.4	1	3	112	0.00	30.004 
05:05	18.4	18.4	18.4	88	15.5	0	1	112	0.00	30.004 
05:10	18.4	18.4	18.4	88	15.5	0	2	112	0.00	30.004 
05:15	18.4	18.4	18.4	89	15.7	0	2	112	0.00	30.005 
05:20	18.6	18.6	18.6	89	15.9	1	3	112	0.00	30.005 
05:25	18.6	18.6	18.6	89	15.9	0	2	112	0.00	30.005 
05:30	18.6	18.6	18.6	89	15.9	0	2	112	0.00	30.004 
05:35	18.8	18.8	18.8	89	16.1	1	2	112	0.00	30.004 
05:40	18.8	18.8	18.8	89	16.1	0	2	112	0.00	30.004 
05:45	18.9	18.9	18.9	89	16.2	0	2	112	0.00	30.005 
05:50	18.9	18.9	18.9	89	16.2	0	0	---	0.00	30.005 
05:55	19.1	19.1	19.1	89	16.4	0	2	112	0.00	30.005 
06:00	19.1	19.1	19.1	89	16.4	0	2	112	0.00	30.010 
06:05	19.1	19.1	19.1	89	16.4	0	2	112	0.00	30.010 
06:10	19.2	19.2	19.2	89	16.5	0	1	112	0.00	30.010 
06:15	19.2	19.2	19.2	89	16.5	0	2	112	0.00	30.012 
06:20	19.2	19.2	19.2	89	16.5	0	1	112	0.00	30.012 
06:25	19.2	19.2	19.2	89	16.5	0	1	112	0.00	30.012 
06:30	19.2	19.2	19.2	89	16.5	0	2	112	0.00	30.014 
06:35	19.4	19.4	19.4	89	16.7	0	2	112	0.00	30.014 
06:40	19.4	19.4	19.4	89	16.7	0	1	112	0.00	30.014 
06:45	19.4	19.4	19.4	90	17.0	0	1	112	0.00	30.007 
06:50	19.5	19.5	19.5	90	17.1	0	1	112	0.00	30.007 
06:55	19.5	19.5	19.5	90	17.1	0	0	---	0.00	30.007 
07:00	19.5	19.5	19.5	90	17.1	0	1	112	0.00	30.002 
07:05	19.5	19.5	19.5	90	17.1	0	1	112	0.00	30.002 
07:10	19.5	19.5	19.5	90	17.1	0	2	112	0.00	30.002 
07:15	19.7	19.7	19.7	90	17.3	0	0	---	0.00	29.994 
07:20	19.7	19.7	19.7	90	17.3	0	1	112	0.00	29.994 
07:25	19.7	19.7	19.7	90	17.3	0	1	112	0.00	29.994 
07:30	19.7	19.7	19.7	90	17.3	1	3	112	0.00	29.987 
07:35	19.7	19.7	19.7	90	17.3	0	1	112	0.00	29.987 
07:40	19.7	19.7	19.7	90	17.3	0	1	112	0.00	29.987 
07:45	19.7	19.7	19.7	90	17.3	0	0	---	0.00	29.983 
07:50	19.9	19.9	19.9	90	17.5	0	0	---	0.00	29.983 
07:55	19.9	19.9	19.9	90	17.5	0	1	112	0.00	29.983 
08:00	19.9	19.9	19.9	90	17.5	0	0	---	0.00	29.984 
08:05	20.0	20.0	20.0	90	17.5	0	1	112	0.00	29.984 
08:10	20.0	20.0	20.0	90	17.5	0	1	112	0.00	29.984 
08:15	20.2	20.2	20.2	90	17.7	0	1	112	0.00	29.990 
08:20	20.3	20.3	20.3	90	17.8	0	2	112	0.00	29.990 
08:25	20.3	20.3	20.3	91	18.1	0	1	112	0.00	29.990 
08:30	20.5	20.5	20.5	91	18.3	0	2	112	0.00	29.990 
08:35	20.6	20.6	20.6	91	18.4	0	1	112	0.00	29.990 
08:40	20.8	20.8	20.8	91	18.6	0	1	112	0.00	29.990 
08:45	21.0	21.0	21.0	91	18.8	0	1	112	0.00	29.996 
08:50	21.1	21.1	21.1	91	18.9	0	1	112	0.00	29.996 
08:55	21.1	21.1	21.1	91	18.9	0	1	112	0.00	29.996 
09:00	21.3	21.3	21.3	91	19.1	0	1	112	0.00	29.996 
09:05	21.4	21.4	21.4	91	19.2	0	1	112	0.00	29.996 
09:10	21.6	21.6	21.6	91	19.4	0	4	112	0.00	29.996 
09:15	21.8	21.8	21.8	91	19.6	0	2	112	0.00	29.991 
09:20	21.8	21.8	21.8	91	19.6	1	3	112	0.00	29.991 
09:25	21.9	21.9	21.9	91	19.7	0	2	112	0.00	29.991 
09:30	22.1	22.1	22.1	91	19.9	0	2	112	0.00	29.979 
09:35	22.2	22.2	22.2	91	20.0	1	3	112	0.00	29.979 
09:40	22.5	22.5	22.5	91	20.3	0	1	112	0.00	29.979 
09:45	23.0	23.0	23.0	91	20.8	0	2	112	0.00	29.979 
09:50	23.2	23.2	23.2	90	20.7	0	1	90	0.00	29.979 
09:55	23.2	23.2	23.2	90	20.7	1	3	90	0.00	29.979 
10:00	23.3	23.3	23.3	90	20.8	0	0	---	0.00	29.974 
10:05	23.8	23.8	23.8	90	21.3	0	2	90	0.00	29.974 
10:10	23.9	23.9	23.9	90	21.4	0	3	90	0.00	29.974 
10:15	24.1	24.1	24.1	90	21.6	0	2	90	0.00	29.968 
10:20	24.2	24.2	24.2	90	21.7	0	1	90	0.00	29.968 
10:25	24.5	24.5	24.5	90	22.0	0	1	90	0.00	29.968 
10:30	24.5	24.5	24.5	89	21.7	0	3	90	0.00	29.972 
10:35	24.5	24.5	24.5	89	21.7	0	1	90	0.00	29.972 
10:40	24.5	24.5	24.5	89	21.7	0	2	90	0.00	29.972 
10:45	24.7	24.7	24.7	89	21.9	0	1	90	0.00	29.966 
10:50	24.7	24.7	24.7	89	21.9	0	1	90	0.00	29.966 
10:55	24.8	24.8	24.8	89	22.0	0	1	90	0.00	29.966 
11:00	25.1	25.1	25.1	89	22.3	0	1	90	0.00	29.963 
11:05	25.3	25.3	25.3	88	22.3	0	1	90	0.00	29.963 
11:10	25.3	25.3	25.3	88	22.3	0	1	90	0.00	29.963 
11:15	25.4	25.4	25.4	88	22.4	0	1	90	0.00	29.962 
11:20	25.4	25.4	25.4	88	22.4	0	2	90	0.00	29.962 
11:25	25.6	25.6	25.6	88	22.5	0	1	90	0.00	29.962 
11:30	25.7	25.7	25.7	88	22.6	0	1	90	0.00	29.963 
11:35	25.8	25.8	25.8	88	22.7	0	1	90	0.00	29.963 
11:40	26.0	26.0	26.0	87	22.7	0	2	90	0.00	29.963 
11:45	25.8	25.8	25.8	87	22.5	1	3	90	0.00	29.957 
11:50	25.8	25.8	25.8	87	22.5	0	2	90	0.00	29.957 
11:55	25.8	25.8	25.8	87	22.5	0	1	90	0.00	29.957 
12:00	26.0	26.0	26.0	87	22.7	1	4	90	0.00	29.951 
12:05	25.8	25.8	25.8	87	22.5	1	3	90	0.00	29.951 
12:10	26.0	26.0	26.0	87	22.7	0	2	90	0.00	29.951 
12:15	26.1	26.1	26.1	87	22.8	0	1	90	0.00	29.944 
12:20	26.4	26.4	26.4	87	23.1	0	1	90	0.00	29.944 
12:25	26.7	26.7	26.7	87	23.4	0	1	90	0.00	29.944 
12:30	26.9	26.9	26.9	87	23.6	0	1	90	0.00	29.931 
12:35	27.0	27.0	27.0	86	23.4	0	2	90	0.00	29.931 
12:40	27.2	27.2	27.2	86	23.6	0	1	90	0.00	29.931 
12:45	27.2	27.2	27.2	85	23.3	0	1	90	0.00	29.920 
12:50	27.5	27.5	27.5	85	23.6	0	1	90	0.00	29.920 
12:55	27.5	27.5	27.5	85	23.6	0	2	90	0.00	29.920 
13:00	27.3	27.3	27.3	84	23.1	1	3	90	0.00	29.916 
13:05	27.3	27.3	27.3	84	23.1	0	2	90	0.00	29.916 
13:10	27.2	27.2	27.2	84	23.0	1	3	90	0.00	29.916 
13:15	27.0	27.0	27.0	84	22.8	0	3	90	0.00	29.906 
13:20	27.3	27.3	27.3	85	23.4	0	1	90	0.00	29.906 
13:25	27.6	27.6	27.6	85	23.7	0	1	90	0.00	29.906 
13:30	27.8	27.8	27.8	84	23.6	0	2	90	0.00	29.897 
13:35	27.9	27.9	27.9	84	23.7	0	3	90	0.00	29.897 
13:40	28.1	28.1	28.1	84	23.9	0	2	90	0.00	29.897 
13:45	28.1	28.1	28.1	84	23.9	1	4	90	0.00	29.891 
13:50	27.9	27.9	27.9	84	23.7	1	3	90	0.00	29.891 
13:55	27.9	27.9	27.9	84	23.7	1	3	68	0.00	29.891 
14:00	27.9	27.9	27.9	84	23.7	0	2	270	0.00	29.884 
14:05	28.2	28.2	28.2	84	24.0	0	2	270	0.00	29.884 
14:10	28.4	28.4	28.4	84	24.2	0	2	270	0.00	29.884 
14:15	28.5	28.5	28.5	83	24.0	1	5	270	0.00	29.880 
14:20	28.5	28.5	28.5	83	24.0	1	5	112	0.00	29.880 
14:25	28.7	28.7	28.7	83	24.2	0	2	112	0.00	29.880 
14:30	29.0	29.0	29.0	83	24.5	0	2	112	0.00	29.871 
14:35	29.3	29.3	29.3	83	24.8	0	3	112	0.00	29.871 
14:40	29.3	29.3	29.3	82	24.5	0	2	112	0.00	29.871 
14:45	29.5	29.5	29.5	82	24.7	0	2	112	0.00	29.872 
14:50	29.7	29.7	29.7	82	24.9	0	1	112	0.00	29.872 
14:55	30.0	30.0	30.0	81	24.9	0	2	112	0.00	29.872 
15:00	29.8	29.8	29.8	82	25.0	0	2	112	0.00	29.876 
15:05	29.8	29.8	29.8	82	25.0	0	3	112	0.00	29.876 
15:10	29.7	29.7	29.7	81	24.6	1	3	112	0.00	29.876 
15:15	29.5	29.5	29.5	82	24.7	1	3	112	0.00	29.876 
15:20	29.7	29.7	29.7	82	24.9	0	2	112	0.01	29.876 
15:25	29.8	29.8	29.8	82	25.0	0	1	112	0.00	29.876 
15:30	30.1	30.1	30.1	82	25.3	0	1	112	0.00	29.874 
15:35	30.3	30.3	30.3	82	25.5	0	1	112	0.00	29.874 
15:40	30.3	30.3	30.3	81	25.2	0	2	112	0.00	29.874 
15:45	30.3	30.3	30.3	81	25.2	0	1	112	0.00	29.880 
15:50	30.3	30.3	30.3	81	25.2	0	1	112	0.00	29.880 
15:55	30.3	30.3	30.3	81	25.2	0	1	112	0.00	29.880 
16:00	30.3	30.3	30.3	81	25.2	0	1	112	0.00	29.881 
16:05	30.4	30.4	30.4	81	25.3	0	1	112	0.01	29.881 
16:10	30.4	30.4	30.4	81	25.3	0	1	112	0.00	29.881 
16:15	30.4	30.4	30.4	81	25.3	0	3	112	0.00	29.879 
16:20	30.3	30.3	30.3	81	25.2	0	2	112	0.00	29.879 
16:25	30.4	30.4	30.4	81	25.3	0	1	112	0.00	29.879 
16:30	30.4	30.4	30.4	81	25.3	0	0	---	0.00	29.878 
16:35	30.4	30.4	30.4	81	25.3	0	0	---	0.00	29.878 
16:40	30.4	30.4	30.4	81	25.3	0	2	112	0.00	29.878 
16:45	30.4	30.4	30.4	81	25.3	0	1	112	0.00	29.875 
16:50	30.4	30.4	30.4	81	25.3	0	1	112	0.00	29.875 
16:55	30.4	30.4	30.4	81	25.3	0	1	112	0.00	29.875 
17:00	30.4	30.4	30.4	81	25.3	0	0	---	0.00	29.874 
17:05	30.6	30.6	30.6	81	25.5	0	0	---	0.00	29.874 
17:10	30.7	30.7	30.7	81	25.6	0	0	---	0.00	29.874 
17:15	30.7	30.7	30.7	81	25.6	0	0	---	0.00	29.868 
17:20	30.7	30.7	30.7	81	25.6	0	0	---	0.00	29.868 
17:25	30.6	30.6	30.6	81	25.5	0	0	---	0.00	29.868 
17:30	30.6	30.6	30.6	81	25.5	0	1	112	0.00	29.864 
17:35	30.6	30.6	30.6	81	25.5	0	0	---	0.00	29.864 
17:40	30.4	30.4	30.4	81	25.3	0	0	---	0.00	29.864 
17:45	30.4	30.4	30.4	81	25.3	0	0	---	0.00	29.866 
17:50	30.4	30.4	30.4	81	25.3	0	0	---	0.00	29.866 
17:55	30.3	30.3	30.3	81	25.2	0	0	---	0.00	29.866 
18:00	30.1	30.1	30.1	82	25.3	0	1	112	0.00	29.868 
18:05	30.1	30.1	30.1	82	25.3	0	0	---	0.00	29.868 
18:10	30.0	30.0	30.0	82	25.2	0	1	112	0.00	29.868 
18:15	30.0	30.0	30.0	82	25.2	0	0	---	0.00	29.864 
18:20	29.8	29.8	29.8	83	25.3	0	0	---	0.00	29.864 
18:25	29.8	29.8	29.8	83	25.3	0	0	---	0.00	29.864 
18:30	29.7	29.7	29.7	83	25.2	0	0	---	0.00	29.865 
18:35	29.7	29.7	29.7	83	25.2	0	1	112	0.00	29.865 
18:40	29.5	29.5	29.5	83	25.0	0	0	---	0.00	29.865 
18:45	29.4	29.4	29.4	84	25.2	0	0	---	0.00	29.868 
18:50	29.3	29.3	29.3	84	25.1	0	0	---	0.00	29.868 
18:55	29.1	29.1	29.1	84	24.9	0	0	---	0.00	29.868 
19:00	29.0	29.0	29.0	84	24.8	0	0	---	0.00	29.865 
19:05	28.7	28.7	28.7	84	24.5	0	0	---	0.00	29.865 
19:10	28.5	28.5	28.5	84	24.3	0	0	---	0.00	29.865 
19:15	28.4	28.4	28.4	85	24.5	0	0	---	0.00	29.864 
19:20	28.2	28.2	28.2	85	24.3	0	0	---	0.00	29.864 
19:25	28.1	28.1	28.1	85	24.2	0	0	---	0.00	29.864 
19:30	27.9	27.9	27.9	86	24.3	0	0	---	0.00	29.863 
19:35	27.9	27.9	27.9	86	24.3	0	0	---	0.00	29.863 
19:40	27.8	27.8	27.8	86	24.2	0	0	---	0.00	29.863 
19:45	27.6	27.6	27.6	86	24.0	0	0	---	0.00	29.863 
19:50	27.6	27.6	27.6	86	24.0	0	0	---	0.00	29.863 
19:55	27.5	27.5	27.5	86	23.9	0	0	---	0.00	29.863 
20:00	27.3	27.3	27.3	86	23.7	0	0	---	0.00	29.868 
20:05	27.3	27.3	27.3	87	24.0	0	0	---	0.00	29.868 
20:10	27.5	27.5	27.5	87	24.1	0	0	---	0.00	29.868 
20:15	27.5	27.5	27.5	87	24.1	0	0	---	0.00	29.855 
20:20	27.5	27.5	27.5	87	24.1	0	0	---	0.00	29.855 
20:25	27.3	27.3	27.3	88	24.2	0	0	---	0.00	29.855 
20:30	27.3	27.3	27.3	88	24.2	0	0	---	0.00	29.848 
20:35	27.3	27.3	27.3	88	24.2	0	0	---	0.00	29.848 
20:40	27.2	27.2	27.2	88	24.1	0	0	---	0.00	29.848 
20:45	27.2	27.2	27.2	88	24.1	0	0	---	0.00	29.853 
20:50	27.0	27.0	27.0	88	23.9	0	0	---	0.00	29.853 
20:55	27.0	27.0	27.0	88	23.9	0	0	---	0.00	29.853 
21:00	27.0	27.0	27.0	88	23.9	0	0	---	0.00	29.857 
21:05	27.0	27.0	27.0	88	23.9	0	0	---	0.00	29.857 
21:10	27.0	27.0	27.0	88	23.9	0	0	---	0.00	29.857 
21:15	27.0	27.0	27.0	88	23.9	0	0	---	0.00	29.850 
21:20	26.9	26.9	26.9	88	23.8	0	0	---	0.00	29.850 
21:25	26.9	26.9	26.9	88	23.8	0	0	---	0.00	29.850 
21:30	26.9	26.9	26.9	88	23.8	0	0	---	0.00	29.849 
21:35	26.9	26.9	26.9	89	24.1	0	0	---	0.00	29.849 
21:40	27.0	27.0	27.0	89	24.2	0	0	---	0.00	29.849 
21:45	27.0	27.0	27.0	89	24.2	0	0	---	0.00	29.857 
21:50	27.2	27.2	27.2	89	24.4	0	0	---	0.00	29.857 
21:55	27.2	27.2	27.2	89	24.4	0	0	---	0.00	29.857 
22:00	27.2	27.2	27.2	89	24.4	0	0	---	0.00	29.852 
22:05	27.3	27.3	27.3	89	24.5	0	0	---	0.00	29.852 
22:10	27.3	27.3	27.3	89	24.5	0	0	---	0.00	29.852 
22:15	27.5	27.5	27.5	89	24.7	0	0	---	0.00	29.851 
22:20	27.5	27.5	27.5	89	24.7	0	0	---	0.00	29.851 
22:25	27.6	27.6	27.6	89	24.8	0	0	---	0.00	29.851 
22:30	27.6	27.6	27.6	89	24.8	0	0	---	0.00	29.849 
22:35	27.6	27.6	27.6	89	24.8	0	0	---	0.00	29.849 
22:40	27.6	27.6	27.6	89	24.8	0	0	---	0.00	29.849 
22:45	27.6	27.6	27.6	89	24.8	0	0	---	0.00	29.846 
22:50	27.6	27.6	27.6	89	24.8	0	0	---	0.00	29.846 
22:55	27.6	27.6	27.6	89	24.8	0	0	---	0.00	29.846 
23:00	27.6	27.6	27.6	89	24.8	0	0	---	0.00	29.837 
23:05	27.8	27.8	27.8	90	25.3	0	0	---	0.00	29.837 
23:10	27.8	27.8	27.8	89	25.0	0	0	---	0.00	29.837 
23:15	27.8	27.8	27.8	90	25.3	0	0	---	0.00	29.826 
23:20	27.8	27.8	27.8	90	25.3	0	0	---	0.00	29.826 
23:25	27.9	27.9	27.9	90	25.4	0	0	---	0.00	29.826 
23:30	27.9	27.9	27.9	90	25.4	0	0	---	0.00	29.813 
23:35	27.9	27.9	27.9	90	25.4	0	0	---	0.00	29.813 
23:40	27.9	27.9	27.9	90	25.4	0	0	---	0.00	29.813 
23:45	27.9	27.9	27.9	90	25.4	0	0	---	0.00	29.816 
23:50	27.9	27.9	27.9	90	25.4	0	0	---	0.00	29.816 
23:55	27.9	27.9	27.9	90	25.4	0	0	---	0.00	29.816 

CoCoRaHS
IN-AL-39
A2 Web Hosting
Creative Commons License
GoDaddy
search engine by freefind advanced

loaded 2018-11-17 12:03:24 • last modified 2010-11-18 10:43:29
Privacy PolicyDisclaimer
• wx.awcolley.com is powered by PmWiki v.2002016 •
• all content (unless otherwise noted) © 2018 A W Colley